Pine Bluff, AR

1:48 PM CST on December 09, 2016 (GMT -0600)
Grider

Weather History for KPBF - January, 2014

Change the Weather History Date:

Monday, January 6, 2014

  Actual Average Record
Temperature  
Mean Temperature 20 °F 42 °F  
Max Temperature 25 °F 51 °F 78 °F (1927)
Min Temperature 14 °F 33 °F 9 °F (1924)
Degree Days  
Heating Degree Days 45 23  
Month to date heating degree days 185 138  
Since 1 July heating degree days 1461 1291  
Cooling Degree Days 0 0  
Month to date cooling degree days 0 0  
Year to date cooling degree days 0 0  
Moisture  
Dew Point -3 °F    
Average Humidity 40    
Maximum Humidity 55    
Minimum Humidity 25    
Precipitation  
Precipitation 0.00 in 0.12 in 1.94 in (1991)
Month to date precipitation 0.05 0.72  
Year to date precipitation 0.05 0.72  
Snow  
Snow 0.00 in 0.00 in 6.00 in (1910)
Month to date snowfall 0.0 0.1  
Since 1 July snowfall 0.2 0.3  
Snow Depth 0.00 in    
Sea Level Pressure  
Sea Level Pressure 30.60 in    
Wind  
Wind Speed 13 mph (NW)    
Max Wind Speed 24 mph    
Max Gust Speed 31 mph    
Visibility 10 miles    
Events      
T = Trace of Precipitation, MM = Missing Value Source: NWS Daily Summary

Daily Weather History Graph

Daily Weather History Graph

Search for Another Location

Airport or City:

Trip Planner

Search our weather history database for the weather conditions in past years. The results will help you decide how hot, cold, wet, or windy it might be!

Date:

Astronomy

Jan. 06, 2014 Rise Set
Actual Time 7:14 AM CST 5:13 PM CST
Civil Twilight 6:46 AM CST 5:40 PM CST
Nautical Twilight 6:15 AM CST 6:11 PM CST
Astronomical Twilight 5:45 AM CST 6:42 PM CST
Moon 10:46 AM CST (1/6) 11:28 PM CST (1/6)
Length of Visible Light 10h 54m
Length of Day
9h 59m
Waxing Crescent, 35% of the Moon is Illuminated
Jan 6
Waxing Crescent
Jan 7
First Quarter
Jan 15
Full
Jan 23
Last Quarter
Jan 30
New

Hourly Weather History & Observations

Time (CST) Temp. Windchill Dew Point Humidity Pressure Visibility Wind Dir Wind Speed Gust Speed Precip Events Conditions
12:53 AM 18.0 °F 3.1 °F 1.9 °F 50% 30.46 in 10.0 mi North 16.1 mph - N/A   Clear
1:53 AM 17.1 °F 1.5 °F 1.0 °F 50% 30.50 in 10.0 mi North 17.3 mph 25.3 mph N/A   Clear
2:53 AM 16.0 °F 2.9 °F -0.0 °F 49% 30.52 in 10.0 mi NNW 11.5 mph 23.0 mph N/A   Clear
3:53 AM 15.1 °F -2.0 °F -0.9 °F 49% 30.53 in 10.0 mi NNW 19.6 mph 23.0 mph N/A   Clear
4:53 AM 15.1 °F -0.1 °F -2.9 °F 45% 30.57 in 10.0 mi North 15.0 mph 24.2 mph N/A   Clear
5:53 AM 14.0 °F 0.5 °F -0.9 °F 52% 30.56 in 10.0 mi North 11.5 mph - N/A   Clear
6:53 AM 14.0 °F -0.2 °F -2.0 °F 49% 30.59 in 10.0 mi NNW 12.7 mph - N/A   Clear
7:53 AM 14.0 °F -0.2 °F -4.0 °F 45% 30.62 in 10.0 mi NW 12.7 mph 24.2 mph N/A   Clear
8:53 AM 16.0 °F 3.6 °F -2.9 °F 43% 30.64 in 10.0 mi NW 10.4 mph - N/A   Clear
9:53 AM 18.0 °F 3.1 °F -5.1 °F 36% 30.66 in 10.0 mi NNW 16.1 mph 26.5 mph N/A   Clear
10:53 AM 19.0 °F 3.2 °F -5.1 °F 34% 30.65 in 10.0 mi NNW 19.6 mph 26.5 mph N/A   Clear
11:53 AM 21.0 °F 7.6 °F -5.1 °F 32% 30.63 in 10.0 mi NNW 15.0 mph 26.5 mph N/A   Clear
12:53 PM 21.9 °F 9.8 °F -6.0 °F 29% 30.60 in 10.0 mi NW 12.7 mph - N/A   Clear
1:53 PM 24.1 °F 13.1 °F -5.1 °F 28% 30.58 in 10.0 mi WNW 11.5 mph 20.7 mph N/A   Clear
2:53 PM 24.1 °F 9.4 °F -7.1 °F 25% 30.58 in 10.0 mi WNW 20.7 mph 26.5 mph N/A   Clear
3:53 PM 24.1 °F 11.5 °F -6.0 °F 27% 30.59 in 10.0 mi NW 15.0 mph - N/A   Clear
4:53 PM 21.9 °F 8.7 °F -5.1 °F 30% 30.59 in 10.0 mi West 15.0 mph - N/A   Clear
5:53 PM 19.9 °F 11.1 °F -5.1 °F 33% 30.59 in 10.0 mi West 6.9 mph - N/A   Clear
6:53 PM 19.9 °F 7.9 °F -6.0 °F 32% 30.61 in 10.0 mi WNW 11.5 mph - N/A   Clear
7:53 PM 18.0 °F 11.1 °F -4.0 °F 38% 30.64 in 10.0 mi West 4.6 mph - N/A   Clear
8:53 PM 16.0 °F 10.4 °F -2.9 °F 43% 30.65 in 10.0 mi NW 3.5 mph - N/A   Clear
9:53 PM 17.1 °F 5.8 °F -2.0 °F 43% 30.65 in 10.0 mi NW 9.2 mph - N/A   Clear
10:53 PM 16.0 °F 4.4 °F -2.9 °F 43% 30.66 in 10.0 mi NW 9.2 mph - N/A   Clear
11:53 PM 15.1 °F 9.4 °F -0.9 °F 49% 30.64 in 10.0 mi NNE 3.5 mph - N/A   Clear